PROFILE

 METAR AND TAF INFORMATION
ADDS - METARS form results

(0215 UTC 02 June 2020)
http://aviationweather.gov/metar/data/
 
OIII 020200Z 34004KT 9999 FEW035 SCT090 26/M02 Q1013 A2993 NOSIG
OIII 020130Z 34004KT 9999 SCT100 25/M02 Q1013 A2993
TAF OIII 012300Z 0200/0306 30008KT 9999 FEW040 BECMG 0208/0210 FEW040TCU SCT045 SCT100 TEMPO 0211/0218 28020G30KT 5000 TSSHRA SCT035CB SCT040 BKN090 BECMG 0219/0221 FEW040 

 AIRPORT MAP

 RUNWAY INFORMATION
Runway 09 Runway length 1554 ft Runway width 130 ft
Runway elevation 0 ft Runway displaced threshold 0 ft Runway heading 89
Runway 27 Runway length 1554 ft Runway width 130 ft
Runway elevation 0 ft Runway displaced threshold 0 ft Runway heading 269
Runway 11L Runway length 13098 ft Runway width 148 ft
Runway elevation 3962 ft Runway displaced threshold 0 ft Runway heading 109
Runway 29R Runway length 13098 ft Runway width 148 ft
Runway elevation 3797 ft Runway displaced threshold 0 ft Runway heading 289
Runway 11R Runway length 13248 ft Runway width 197 ft
Runway elevation 3949 ft Runway displaced threshold 3075 ft Runway heading 109
Runway 29L Runway length 13248 ft Runway width 197 ft
Runway elevation 3794 ft Runway displaced threshold 0 ft Runway heading 289

 AIRPORT FREQUENCIES
Type APP Name APP Frequency 119.7 MHZ
Type ATIS Name ATIS Frequency 128 MHZ
Type GND Name GND Frequency 121.7 MHZ
Type TWR Name TWR Frequency 118.1 MHZ

 AIRPORT NEAR NAVIGATION AIDS
Type TACAN Name Tehran Frequency 113300 KHZ
Type VOR-DME Name Tehran Frequency 115300 KHZ